GW3518 Weather Reports


time (UTC)temp
F
wind
direction
speed
knots
gust
knots
rain 1hr
in
rain 24hr
in
rain mn
in
humidity
%
barometer
mb
20260510193832 61 357 0.9 0.9 0.00 0.12 0.12 69 1011.2
20260510193328 61 165 0.0 0.0 0.00 0.12 0.12 77 1011.2
20260510192823 60 51 0.9 0.9 0.00 0.12 0.12 75 1011.3
20260510192319 60 95 0.9 1.7 0.00 0.12 0.12 75 1011.2
20260510191815 60 78 0.0 0.0 0.00 0.12 0.12 75 1011.3
20260510191311 61 95 0.9 1.7 0.00 0.12 0.12 76 1011.3
20260510190809 61 176 0.9 1.7 0.00 0.12 0.12 73 1011.3
20260510190306 60 17 1.7 2.6 0.00 0.12 0.12 76 1011.1
20260510185802 60 322 0.9 1.7 0.00 0.12 0.12 75 1011.1
20260510185301 61 84 0.0 1.7 0.00 0.12 0.12 76 1010.9
20260510184758 61 280 1.7 2.6 0.00 0.12 0.12 75 1010.9
20260510184254 61 349 0.9 0.9 0.00 0.12 0.12 76 1011.2
20260510183748 61 288 4.3 6.1 0.00 0.12 0.12 74 1011.0
20260510183244 61 76 0.0 0.9 0.00 0.12 0.12 75 1010.9
20260510182740 61 51 0.9 1.7 0.00 0.12 0.12 76 1010.7
20260510182236 60 164 0.0 0.9 0.00 0.12 0.12 77 1011.1
20260510181733 60 79 1.7 1.7 0.00 0.12 0.12 78 1010.8
20260510181231 59 74 0.9 0.9 0.00 0.12 0.12 81 1010.9
20260510180726 59 99 0.0 0.0 0.00 0.12 0.12 79 1010.9
20260510180224 59 188 0.0 0.0 0.00 0.12 0.12 81 1011.1
20260510175720 60 15 1.7 2.6 0.00 0.12 0.12 84 1010.9
20260510175216 60 355 1.7 1.7 0.00 0.12 0.12 85 1011.0
20260510174713 59 302 1.7 1.7 0.00 0.12 0.12 81 1010.9
20260510174210 60 352 1.7 2.6 0.00 0.12 0.12 82 1010.9
20260510173706 59 96 1.7 1.7 0.00 0.12 0.12 91 1011.1
20260510173202 58 96 0.0 0.9 0.00 0.12 0.12 86 1011.2
20260510172658 58 358 1.7 2.6 0.00 0.12 0.12 85 1010.9
20260510172154 58 292 1.7 1.7 0.00 0.12 0.12 91 1011.0
20260510171651 57 63 0.0 0.0 0.00 0.12 0.12 94 1011.1
20260510171149 57 93 0.0 0.9 0.00 0.12 0.12 94 1011.0
20260510170645 56 197 0.9 0.9 0.00 0.12 0.12 95 1011.3
20260510170141 55 322 0.0 0.0 0.00 0.12 0.12 99 1011.3
20260510165637 53 115 0.0 0.0 0.07 0.12 0.12 99 1011.2
20260510165133 53 68 0.0 0.0 0.12 0.12 0.12 99 1011.2
20260510164631 53 94 0.0 0.0 0.12 0.11 0.11 99 1011.3
20260510164128 53 165 0.0 0.0 0.12 0.10 0.10 99 1011.3
20260510163623 54 127 0.0 0.0 0.05 0.09 0.09 99 1010.9
20260510163120 55 206 0.0 0.0 0.00 0.08 0.08 99 1011.2
20260510162620 55 206 0.0 0.0 0.00 0.08 0.08 99 1011.0
20260510162117 55 206 0.0 0.0 0.00 0.08 0.08 99 1011.1
20260510161612 54 206 0.0 0.0 0.00 0.08 0.08 99 1010.9
20260510161109 54 206 0.0 0.0 0.00 0.08 0.08 99 1011.0
20260510160606 54 206 0.0 0.0 0.00 0.08 0.08 99 1010.9
20260510160106 54 206 0.0 0.0 0.07 0.08 0.08 99 1011.1
20260510155603 54 206 0.0 0.0 0.07 0.08 0.08 99 1011.1
20260510155059 53 206 0.0 0.0 0.00 0.07 0.07 99 1010.9
20260510154554 53 206 0.0 0.0 0.00 0.07 0.07 99 1010.9
20260510154050 53 206 0.0 0.0 0.00 0.07 0.07 99 1010.9
20260510153545 53 206 0.0 0.0 0.05 0.07 0.07 99 1011.0
20260510153042 53 206 0.0 0.0 0.12 0.07 0.07 99 1010.7
20260510152539 53 206 0.0 0.0 0.12 0.07 0.07 99 1011.1
20260510152035 53 206 0.0 0.0 0.24 0.05 0.05 99 1011.1
20260510151532 54 206 0.0 0.0 0.24 0.05 0.05 98 1011.0
20260510151030 54 251 0.0 0.0 0.00 0.01 0.01 95 1011.0
20260510150524 54 235 0.0 0.0 0.00 0.01 0.01 94 1010.5
20260510150021 54 195 0.0 0.0 0.00 0.01 0.01 95 1010.4
20260510145518 54 194 0.0 0.0 0.00 0.01 0.01 94 1010.2
20260510145014 54 194 0.0 0.0 0.00 0.01 0.01 94 1010.1
20260510144511 55 194 0.0 0.0 0.00 0.01 0.01 92 1010.1
20260510144007 55 193 0.0 0.0 0.00 0.01 0.01 91 1009.9
20260510143502 55 154 0.0 0.0 0.00 0.01 0.01 90 1010.2
20260510142959 55 155 0.0 0.0 0.00 0.01 0.01 89 1010.1
20260510142456 55 225 1.7 1.7 0.00 0.01 0.01 87 1010.4
20260510141952 55 157 0.0 0.0 0.00 0.01 0.01 91 1010.3
20260510141449 55 158 0.0 0.9 0.00 0.01 0.01 91 1010.5
20260510140946 55 133 0.0 0.0 0.00 0.01 0.01 92 1010.2
20260510140443 55 34 0.0 0.0 0.00 0.01 0.01 91 1010.4
20260510135942 55 170 0.0 0.0 0.00 0.01 0.01 90 1010.3
20260510135438 55 293 1.7 2.6 0.00 0.01 0.01 90 1010.4
20260510134935 54 190 0.0 0.9 0.00 0.01 0.01 92 1010.3
20260510134431 53 150 0.9 1.7 0.00 0.01 0.01 93 1010.3
20260510133928 54 191 0.0 0.0 0.00 0.01 0.01 91 1010.5
20260510133424 54 208 0.0 0.0 0.00 0.01 0.01 94 1010.6
20260510132919 53 287 0.0 0.0 0.00 0.01 0.01 94 1010.6
20260510132418 53 65 0.0 0.9 0.00 0.01 0.01 97 1010.6
20260510131914 52 88 0.0 0.0 0.00 0.01 0.01 98 1010.7
20260510131412 52 50 0.0 0.0 0.00 0.01 0.01 97 1010.5
20260510130909 52 21 0.0 0.0 0.00 0.01 0.01 97 1010.5
20260510130406 52 222 0.0 0.0 0.00 0.01 0.01 95 1010.3
20260510125903 52 165 0.0 0.0 0.00 0.01 0.01 97 1010.3
20260510125358 52 186 0.0 0.0 0.00 0.01 0.01 97 1010.3
20260510124855 52 251 0.0 0.9 0.00 0.01 0.01 99 1010.3
20260510124352 51 161 0.0 0.0 0.00 0.01 0.01 99 1010.1
20260510123848 51 184 0.0 0.0 0.00 0.01 0.01 99 1010.5
20260510123343 50 224 0.0 0.0 0.00 0.01 0.01 99 1010.8
20260510122840 51 62 0.0 0.0 0.00 0.01 0.01 99 1010.6
20260510122336 50 63 0.0 0.0 0.00 0.01 0.01 99 1010.5
20260510121833 50 181 0.0 0.0 0.00 0.01 0.01 99 1010.5
20260510121330 50 130 0.0 0.0 0.00 0.01 0.01 99 1010.4
20260510120827 50 173 0.0 0.0 0.00 0.01 0.01 99 1010.6
20260510120324 50 190 0.9 0.9 0.00 0.01 0.01 99 1010.6
20260510115820 50 98 0.0 0.0 0.00 0.01 0.01 99 1010.4
20260510115317 50 111 0.0 0.0 0.00 0.01 0.01 99 1010.5
20260510114813 50 91 0.0 0.0 0.00 0.01 0.01 99 1010.3
20260510114310 50 50 0.0 0.0 0.00 0.01 0.01 99 1010.1
20260510113805 49 40 0.0 0.0 0.00 0.01 0.01 99 1010.3
20260510113302 49 14 0.0 0.0 0.00 0.01 0.01 99 1010.1
20260510112759 49 95 0.0 0.0 0.00 0.01 0.01 99 1010.1
20260510112256 49 95 0.0 0.0 0.00 0.01 0.01 99 1010.2
20260510111752 49 50 0.0 0.0 0.00 0.01 0.01 99 1010.2
20260510111249 49 49 0.0 0.0 0.00 0.01 0.01 99 1010.1
20260510110748 49 48 0.0 0.0 0.00 0.01 0.01 99 1010.0
20260510110246 48 288 0.0 0.0 0.00 0.01 0.01 99 1009.6
20260510105746 48 288 0.0 0.0 0.00 0.01 0.01 99 1009.7
20260510105241 48 288 0.0 0.0 0.00 0.01 0.01 99 1009.9
20260510104737 48 288 0.0 0.0 0.00 0.01 0.01 99 1010.1
20260510104235 48 288 0.0 0.0 0.00 0.01 0.01 99 1009.9
20260510103731 48 288 0.0 0.0 0.00 0.01 0.01 99 1009.8
20260510103229 48 288 0.0 0.0 0.00 0.01 0.01 99 1009.6
20260510102723 48 288 0.0 0.0 0.00 0.01 0.01 99 1009.8
20260510102219 48 288 0.0 0.0 0.00 0.01 0.01 99 1009.5
20260510101716 48 288 0.0 0.0 0.00 0.01 0.01 99 1009.3
20260510101215 47 288 0.0 0.0 0.00 0.01 0.01 99 1009.2
20260510100710 47 288 0.0 0.0 0.00 0.01 0.01 99 1009.1
20260510100208 47 288 0.0 0.0 0.00 0.01 0.01 99 1008.8
20260510095703 47 289 0.0 0.0 0.00 0.01 0.01 99 1009.0
20260510095158 47 289 0.0 0.0 0.00 0.01 0.01 99 1008.7
20260510094657 47 289 0.0 0.0 0.00 0.01 0.01 99 1008.8
20260510094153 47 289 0.0 0.0 0.00 0.01 0.01 99 1008.6
20260510093649 47 289 0.0 0.0 0.00 0.01 0.01 99 1008.6
20260510093147 47 289 0.0 0.0 0.00 0.01 0.01 99 1008.6
20260510092643 47 289 0.0 0.0 0.00 0.01 0.01 99 1008.8
20260510092138 47 289 0.0 0.0 0.00 0.01 0.01 99 1008.7
20260510091635 47 289 0.0 0.0 0.00 0.01 0.01 99 1008.4
20260510091132 47 289 0.0 0.0 0.00 0.01 0.01 99 1008.2
20260510090629 47 289 0.0 0.0 0.00 0.01 0.01 99 1008.4
20260510090125 47 288 0.0 0.0 0.00 0.01 0.01 99 1008.2
20260510085620 47 287 0.0 0.0 0.00 0.01 0.01 99 1008.4
20260510085116 47 287 0.0 0.0 0.00 0.01 0.01 99 1008.4
20260510084612 47 287 0.0 0.0 0.00 0.01 0.01 99 1008.9
20260510084109 47 287 0.0 0.0 0.00 0.01 0.01 99 1008.8
20260510083606 47 287 0.0 0.0 0.00 0.01 0.01 99 1008.9
20260510083102 47 287 0.0 0.0 0.00 0.01 0.01 99 1009.0
20260510082558 47 287 0.0 0.0 0.00 0.01 0.01 99 1009.1
20260510082053 47 287 0.0 0.0 0.00 0.01 0.01 99 1009.1
20260510081548 47 287 0.0 0.0 0.00 0.01 0.01 99 1009.3
20260510081045 47 287 0.0 0.0 0.00 0.01 0.01 99 1009.3
20260510080544 47 287 0.0 0.0 0.00 0.01 0.01 99 1009.4
20260510080042 47 287 0.0 0.0 0.00 0.01 0.01 99 1009.2
20260510075539 47 287 0.0 0.0 0.00 0.01 0.01 99 1009.3
20260510075036 47 287 0.0 0.0 0.00 0.01 0.01 99 1009.1
20260510074533 47 287 0.0 0.0 0.00 0.01 0.01 99 1009.1
20260510074028 46 287 0.0 0.0 0.00 0.01 0.01 99 1009.1
20260510073524 46 287 0.0 0.0 0.00 0.01 0.01 99 1009.1
20260510073021 47 287 0.0 0.0 0.00 0.01 0.01 99 1009.3
20260510072519 46 287 0.0 0.0 0.00 0.01 0.01 99 1008.9
20260510072014 46 287 0.0 0.0 0.00 0.01 0.01 99 1009.0
20260510071510 46 287 0.0 0.0 0.00 0.01 0.01 99 1009.1
20260510071009 46 287 0.0 0.0 0.00 0.01 0.01 99 1009.1
20260510070505 46 287 0.0 0.0 0.00 0.01 0.01 99 1008.9
20260510070002 46 288 0.0 0.0 0.00 0.01 0.01 99 1009.2
20260510065458 46 288 0.0 0.0 0.00 0.01 0.01 99 1009.4
20260510064954 47 237 0.0 0.0 0.00 0.01 0.01 99 1009.1
20260510064451 46 237 0.0 0.0 0.00 0.01 0.01 99 1009.2
20260510063948 46 237 0.0 0.0 0.00 0.01 0.01 99 1009.5
20260510063445 46 237 0.0 0.0 0.00 0.01 0.01 99 1009.3
20260510062942 46 237 0.0 0.0 0.00 0.01 0.01 99 1009.2
20260510062436 46 237 0.0 0.0 0.00 0.01 0.01 99 1009.2
20260510061932 46 237 0.0 0.0 0.00 0.01 0.01 99 1009.1
20260510061429 46 236 0.0 0.0 0.00 0.01 0.01 99 1009.3
20260510060925 46 236 0.0 0.0 0.00 0.01 0.01 99 1009.3
20260510060423 46 238 0.0 0.0 0.00 0.01 0.01 99 1009.3
20260510055919 46 26 0.0 0.0 0.00 0.01 0.01 99 1009.3
20260510055414 46 29 0.0 0.0 0.00 0.01 0.01 99 1009.1
20260510054912 46 192 0.0 0.0 0.00 0.01 0.01 99 1009.1
20260510054408 46 152 0.0 0.0 0.00 0.01 0.01 99 1009.0
20260510053902 46 152 0.0 0.0 0.00 0.01 0.01 99 1009.1
20260510053358 46 152 0.0 0.0 0.00 0.01 0.01 99 1009.1
20260510052855 46 152 0.0 0.0 0.00 0.01 0.01 99 1009.4
20260510052351 46 152 0.0 0.0 0.00 0.01 0.01 99 1009.4
20260510051847 46 152 0.0 0.0 0.00 0.01 0.01 99 1009.2
20260510051344 46 152 0.0 0.0 0.00 0.01 0.01 99 1009.2
20260510050841 46 151 0.0 0.0 0.00 0.01 0.01 99 1009.2
20260510050337 46 142 0.9 0.9 0.07 0.01 0.01 99 1009.1
20260510045835 46 151 1.7 1.7 0.07 0.01 0.01 99 1009.3
20260510045331 46 56 0.9 1.7 0.00 0.00 0.00 99 1009.6
20260510044828 47 55 0.0 0.0 0.00 0.00 0.00 99 1009.7
20260510044325 46 55 0.0 0.0 0.00 0.00 0.00 99 1009.8
20260510043821 46 55 0.0 0.0 0.00 0.00 0.00 99 1009.6
20260510043318 46 55 0.0 0.0 0.00 0.00 0.00 99 1009.6
20260510042815 45 55 0.0 0.0 0.00 0.00 0.00 99 1009.6
20260510042311 45 55 0.0 0.0 0.00 0.00 0.00 99 1009.5
20260510041808 45 55 0.0 0.0 0.00 0.00 0.00 99 1009.4
20260510041306 45 55 0.0 0.0 0.00 0.00 0.00 99 1009.6
20260510040803 45 55 0.0 0.0 0.00 0.00 0.00 99 1009.6
20260510040259 45 55 0.0 0.0 0.00 0.00 0.00 99 1009.6
20260510035754 45 55 0.0 0.0 0.00 0.12 0.12 99 1009.5
20260510035250 45 55 0.0 0.0 0.00 0.12 0.12 99 1009.8
20260510034747 45 55 0.0 0.0 0.00 0.12 0.12 99 1009.8
20260510034245 45 55 0.0 0.0 0.00 0.12 0.12 99 1009.6
20260510033740 45 55 0.0 0.0 0.00 0.12 0.12 99 1009.8
20260510033238 45 55 0.0 0.0 0.00 0.12 0.12 99 1009.4
20260510032734 45 55 0.0 0.0 0.00 0.12 0.12 99 1009.5
20260510032231 45 55 0.0 0.0 0.00 0.12 0.12 99 1009.6
20260510031725 45 55 0.0 0.0 0.00 0.12 0.12 99 1009.6
20260510031222 45 55 0.0 0.0 0.00 0.12 0.12 99 1009.8
20260510030721 45 55 0.0 0.0 0.00 0.12 0.12 99 1009.8
20260510030219 45 55 0.0 0.0 0.00 0.12 0.12 99 1009.7
20260510025716 45 55 0.0 0.0 0.00 0.12 0.12 99 1009.9
20260510025213 45 55 0.0 0.0 0.00 0.12 0.12 99 1009.9
20260510024710 45 55 0.0 0.0 0.00 0.12 0.12 99 1010.0
20260510024207 45 55 0.0 0.0 0.00 0.12 0.12 99 1010.2
20260510023702 45 55 0.0 0.0 0.00 0.12 0.12 99 1009.9
20260510023159 45 55 0.0 0.0 0.00 0.12 0.12 99 1010.0
20260510022655 45 55 0.0 0.0 0.00 0.12 0.12 99 1010.0
20260510022150 45 55 0.0 0.0 0.00 0.12 0.12 99 1010.1
20260510021646 45 55 0.0 0.0 0.00 0.12 0.12 99 1010.2
20260510021143 45 55 0.0 0.0 0.00 0.12 0.12 99 1010.1
20260510020637 45 55 0.0 0.0 0.00 0.12 0.12 99 1010.3
20260510020133 45 55 0.0 0.0 0.00 0.12 0.12 99 1010.0
20260510015629 45 55 0.0 0.0 0.00 0.12 0.12 99 1010.1
20260510015126 45 55 0.0 0.0 0.00 0.12 0.12 99 1010.4
20260510014621 45 55 0.0 0.0 0.00 0.12 0.12 99 1010.3
20260510014119 45 55 0.0 0.0 0.00 0.12 0.12 99 1010.5
20260510013619 45 55 0.0 0.0 0.00 0.12 0.12 99 1010.5
20260510013115 45 55 0.0 0.0 0.00 0.12 0.12 99 1010.3
20260510012614 45 55 0.0 0.0 0.00 0.12 0.12 99 1010.3
20260510012111 45 55 0.0 0.0 0.00 0.12 0.12 99 1010.5
20260510011610 46 55 0.0 0.0 0.00 0.12 0.12 99 1010.3
20260510011106 46 55 0.0 0.0 0.00 0.12 0.12 99 1010.4
20260510010603 45 55 0.0 0.0 0.00 0.12 0.12 99 1010.1
20260510010100 45 55 0.0 0.0 0.00 0.12 0.12 99 1010.2
20260510005555 45 55 0.0 0.0 0.00 0.12 0.12 99 1010.1
20260510005053 46 55 0.0 0.0 0.00 0.12 0.12 99 1010.2
20260510004551 46 55 0.0 0.0 0.00 0.12 0.12 99 1010.1
20260510004049 45 55 0.0 0.0 0.00 0.12 0.12 99 1010.0
20260510003545 46 55 0.0 0.0 0.00 0.12 0.12 99 1010.3
20260510003041 46 55 0.0 0.0 0.00 0.12 0.12 99 1010.1
20260510002536 46 55 0.0 0.0 0.00 0.12 0.12 99 1009.8
20260510002034 46 55 0.0 0.0 0.00 0.12 0.12 99 1009.9
20260510001531 46 55 0.0 0.0 0.00 0.12 0.12 99 1009.7
20260510001029 46 55 0.0 0.0 0.00 0.12 0.12 99 1010.0
20260510000524 46 55 0.0 0.0 0.00 0.12 0.12 99 1009.9
20260510000021 46 55 0.0 0.0 0.00 0.12 0.12 99 1009.7
20260509235518 46 55 0.0 0.0 0.00 0.12 0.12 99 1009.7
20260509235014 46 55 0.0 0.0 0.00 0.12 0.12 99 1009.5
20260509234511 46 55 0.0 0.0 0.00 0.12 0.12 99 1009.8
20260509234009 46 55 0.0 0.0 0.00 0.12 0.12 99 1009.9
20260509233501 46 55 0.0 0.0 0.00 0.12 0.12 99 1009.5
20260509232957 46 55 0.0 0.0 0.00 0.12 0.12 99 1009.6
20260509232455 46 55 0.0 0.0 0.00 0.12 0.12 99 1009.7
20260509231950 46 55 0.0 0.0 0.00 0.12 0.12 99 1009.4
20260509231447 46 55 0.0 0.0 0.00 0.12 0.12 99 1009.5
20260509230945 46 55 0.0 0.0 0.00 0.12 0.12 99 1009.5
20260509230442 46 55 0.0 0.0 0.00 0.12 0.12 99 1009.7
20260509225938 46 55 0.0 0.0 0.00 0.12 0.12 99 1009.6
20260509225435 46 55 0.0 0.0 0.00 0.12 0.12 99 1009.5
20260509224931 46 55 0.0 0.0 0.00 0.12 0.12 99 1009.7
20260509224426 46 55 0.0 0.0 0.00 0.12 0.12 99 1009.7
20260509223923 46 55 0.0 0.0 0.00 0.12 0.12 99 1009.7
20260509223420 46 55 0.0 0.0 0.00 0.12 0.12 99 1009.8
20260509222918 46 55 0.0 0.0 0.00 0.12 0.12 99 1009.7
20260509222412 46 55 0.0 0.0 0.00 0.12 0.12 99 1009.9
20260509221908 46 55 0.0 0.0 0.00 0.12 0.12 99 1009.8
20260509221405 46 55 0.0 0.0 0.00 0.12 0.12 99 1009.8
20260509220901 46 55 0.0 0.0 0.00 0.12 0.12 99 1009.7
20260509220357 46 55 0.0 0.0 0.00 0.12 0.12 99 1009.8
20260509215852 46 55 0.0 0.0 0.00 0.12 0.12 99 1009.8
20260509215344 46 55 0.0 0.0 0.00 0.12 0.12 99 1009.9
20260509214841 46 55 0.0 0.0 0.00 0.12 0.12 99 1009.9
20260509214338 46 55 0.0 0.0 0.00 0.12 0.12 99 1010.0
20260509213835 46 55 0.0 0.0 0.00 0.12 0.12 99 1010.0
20260509213329 46 55 0.0 0.0 0.00 0.12 0.12 99 1010.0
20260509212822 46 55 0.0 0.0 0.00 0.12 0.12 99 1010.2
20260509212320 46 55 0.0 0.0 0.00 0.12 0.12 99 1010.1
20260509211815 46 55 0.0 0.0 0.00 0.12 0.12 99 1010.4
20260509211311 46 55 0.0 0.0 0.00 0.12 0.12 99 1010.0
20260509210808 46 55 0.0 0.0 0.00 0.12 0.12 99 1010.3
20260509210306 46 55 0.0 0.0 0.00 0.12 0.12 99 1010.3
20260509205805 46 55 0.0 0.0 0.00 0.12 0.12 99 1010.1
20260509205300 46 55 0.0 0.0 0.00 0.12 0.12 99 1010.0
20260509204756 46 55 0.0 0.0 0.00 0.12 0.12 99 1010.3
20260509204253 46 55 0.0 0.0 0.00 0.12 0.12 99 1010.2
20260509203749 46 55 0.0 0.0 0.00 0.12 0.12 99 1010.4
20260509203247 46 55 0.0 0.0 0.00 0.12 0.12 99 1010.3
20260509202742 46 55 0.0 0.0 0.00 0.12 0.12 99 1010.2
20260509202238 46 55 0.0 0.0 0.00 0.12 0.12 99 1010.2
20260509201733 46 55 0.0 0.0 0.00 0.12 0.12 99 1010.2
20260509201230 46 55 0.0 0.0 0.00 0.12 0.12 99 1010.2
20260509200726 46 55 0.0 0.0 0.05 0.12 0.12 99 1010.3
20260509200222 46 55 0.0 0.0 0.05 0.12 0.12 99 1010.1
20260509195718 46 55 0.0 0.0 0.00 0.11 0.11 99 1010.4
20260509195213 46 55 0.0 0.0 0.00 0.11 0.11 99 1010.4
20260509194712 46 55 0.0 0.0 0.00 0.11 0.11 99 1010.5